EW3525 Weather Reports


time (UTC)temp
C
wind
direction
speed
KPH
gust
KPH
rain 1hr
cm
rain 24hr
cm
rain mn
cm
humidity
%
barometer
mb
20260505153019 15 18 1.6 6.4 0.00 0.00 0.00 69 1011.8
20260505152518 15 335 1.6 6.4 0.00 0.00 0.00 69 1011.7
20260505152020 14 315 0.0 4.8 0.00 0.00 0.00 69 1011.7
20260505151518 14 355 0.0 3.2 0.00 0.00 0.00 71 1011.8
20260505151017 14 346 0.0 6.4 0.00 0.00 0.00 71 1011.8
20260505150517 14 11 0.0 6.4 0.00 0.00 0.00 70 1011.8
20260505140513 15 345 0.0 3.2 0.00 0.00 0.00 69 1012.0
20260505125013 15 355 0.0 4.8 0.00 0.00 0.00 70 1012.4
20260505124512 15 5 0.0 3.2 0.00 0.00 0.00 70 1012.4
20260505124007 15 5 1.6 4.8 0.00 0.00 0.00 69 1012.4
20260505123505 15 28 0.0 4.8 0.00 0.00 0.00 70 1012.4
20260505123005 15 330 0.0 6.4 0.00 0.00 0.00 69 1012.4
20260505122506 15 349 3.2 6.4 0.00 0.00 0.00 68 1012.4
20260505122005 15 11 1.6 6.4 0.00 0.00 0.00 68 1012.4
20260505121514 14 21 1.6 9.7 0.00 0.00 0.00 70 1012.4
20260505121005 14 54 1.6 9.7 0.00 0.00 0.00 70 1012.4
20260505120505 14 20 1.6 9.7 0.00 0.00 0.00 70 1012.4
20260505120004 14 22 1.6 14.5 0.00 0.00 0.00 69 1012.3
20260505115502 15 340 1.6 14.5 0.00 0.00 0.00 68 1012.4
20260505115003 15 9 3.2 11.3 0.00 0.00 0.00 70 1012.4
20260505114503 14 38 1.6 8.0 0.00 0.00 0.00 71 1012.4
20260505114003 15 40 1.6 8.0 0.00 0.00 0.00 69 1012.4
20260505113502 15 329 1.6 6.4 0.00 0.00 0.00 69 1012.4
20260505113117 15 246 0.0 4.8 0.00 0.00 0.00 68 1012.4
20260505112559 16 355 1.6 4.8 0.00 0.00 0.00 69 1012.4
20260505112058 14 34 0.0 6.4 0.00 0.00 0.00 75 1012.5
20260505111558 13 316 1.6 12.9 0.00 0.00 0.00 74 1012.6
20260505111058 13 149 1.6 12.9 0.00 0.00 0.00 74 1012.7
20260505110600 13 40 1.6 6.4 0.00 0.00 0.00 72 1012.7
20260505110116 14 19 0.0 6.4 0.00 0.00 0.00 72 1012.7
20260505102051 13 39 1.6 9.7 0.00 0.00 0.00 75 1013.0
20260505101552 13 360 3.2 11.3 0.00 0.00 0.00 73 1013.0
20260505101050 13 41 1.6 8.0 0.00 0.00 0.00 74 1013.0
20260505100551 13 35 1.6 8.0 0.00 0.00 0.00 77 1013.1
20260505100050 13 5 1.6 8.0 0.00 0.00 0.00 78 1013.0
20260505095550 12 68 1.6 14.5 0.00 0.00 0.00 78 1013.0
20260505095049 12 360 1.6 14.5 0.00 0.00 0.00 78 1013.0
20260505094556 13 333 3.2 8.0 0.00 0.00 0.00 77 1013.1
20260505094048 13 340 0.0 6.4 0.00 0.00 0.00 76 1013.1
20260505093548 13 5 0.0 6.4 0.00 0.00 0.00 76 1013.1
20260505093053 13 9 1.6 6.4 0.00 0.00 0.00 78 1013.2
20260505092545 13 23 1.6 8.0 0.00 0.00 0.00 81 1013.2
20260505092044 12 51 1.6 8.0 0.00 0.00 0.00 81 1013.2
20260505091546 12 360 1.6 4.8 0.00 0.00 0.00 81 1013.1
20260505091044 12 80 0.0 6.4 0.00 0.00 0.00 82 1013.1
20260505090544 12 17 0.0 6.4 0.00 0.00 0.00 82 1013.1
20260505090046 12 22 0.0 6.4 0.00 0.00 0.00 81 1013.1
20260505085544 12 344 0.0 8.0 0.00 0.00 0.00 80 1013.0
20260505085043 12 24 1.6 8.0 0.00 0.00 0.00 78 1013.1
20260505084552 13 343 1.6 8.0 0.00 0.00 0.00 79 1013.2
20260505084042 12 55 1.6 6.4 0.00 0.00 0.00 79 1013.2
20260505083540 12 35 1.6 6.4 0.00 0.00 0.00 82 1013.2
20260505083051 12 34 0.0 6.4 0.00 0.00 0.00 81 1013.3
20260505082538 12 32 0.0 6.4 0.00 0.00 0.00 81 1013.4
20260505082038 12 40 1.6 8.0 0.00 0.00 0.00 81 1013.3
20260505081538 12 19 1.6 8.0 0.00 0.00 0.00 81 1013.4
20260505081038 12 59 0.0 6.4 0.00 0.00 0.00 81 1013.4
20260505080539 12 5 3.2 8.0 0.00 0.00 0.00 81 1013.3
20260505080046 12 13 1.6 9.7 0.00 0.00 0.00 82 1013.3
20260505075535 12 24 1.6 9.7 0.00 0.00 0.00 83 1013.2
20260505075035 12 315 4.8 9.7 0.00 0.00 0.00 83 1013.1
20260505074534 11 342 0.0 8.0 0.00 0.00 0.00 84 1013.3
20260505074033 11 13 1.6 8.0 0.00 0.00 0.00 84 1013.2
20260505073532 11 57 0.0 8.0 0.00 0.00 0.00 84 1013.2
20260505073035 11 340 0.0 4.8 0.00 0.00 0.00 85 1013.3
20260505072531 11 5 1.6 8.0 0.00 0.00 0.00 86 1013.4
20260505072031 11 63 1.6 8.0 0.00 0.00 0.00 86 1013.4
20260505071543 11 48 0.0 8.0 0.00 0.00 0.00 86 1013.4
20260505071032 11 19 3.2 8.0 0.00 0.00 0.00 86 1013.4
20260505070530 11 304 1.6 8.0 0.00 0.00 0.00 87 1013.4
20260505070029 11 53 0.0 6.4 0.00 0.00 0.00 87 1013.5
20260505065528 10 336 0.0 6.4 0.00 0.00 0.00 88 1013.5
20260505065026 10 324 1.6 6.4 0.00 0.00 0.00 88 1013.5
20260505064532 10 332 1.6 4.8 0.00 0.00 0.00 88 1013.5
20260505064027 10 334 1.6 6.4 0.00 0.00 0.00 89 1013.4
20260505063524 10 65 0.0 6.4 0.00 0.00 0.00 90 1013.4
20260505063023 10 17 0.0 3.2 0.00 0.00 0.00 91 1013.3
20260505062525 10 338 0.0 3.2 0.00 0.00 0.00 91 1013.3
20260505062021 9 9 0.0 0.0 0.00 0.00 0.00 91 1013.3
20260505061521 9 344 0.0 3.2 0.00 0.00 0.00 92 1013.3
20260505061020 9 334 0.0 3.2 0.00 0.00 0.00 92 1013.2
20260505060520 9 337 0.0 3.2 0.00 0.00 0.00 92 1013.3
20260505060027 8 346 0.0 4.8 0.00 0.00 0.00 92 1013.3
20260505055520 8 348 0.0 4.8 0.00 0.00 0.00 92 1013.3
20260505055017 8 17 0.0 4.8 0.00 0.00 0.00 93 1013.3
20260505054516 8 355 0.0 1.6 0.00 0.00 0.00 93 1013.3
20260505054015 8 360 0.0 3.2 0.00 0.00 0.00 93 1013.4
20260505053515 8 15 0.0 3.2 0.00 0.00 0.00 93 1013.4
20260505053014 8 30 0.0 3.2 0.00 0.00 0.00 92 1013.4
20260505052515 8 47 0.0 3.2 0.00 0.00 0.00 92 1013.3
20260505052012 8 5 0.0 3.2 0.00 0.00 0.00 92 1013.4
20260505051512 8 22 0.0 3.2 0.00 0.00 0.00 92 1013.4
20260505051013 8 325 0.0 6.4 0.00 0.00 0.00 92 1013.4
20260505050510 8 344 1.6 6.4 0.00 0.00 0.00 92 1013.4
20260505041509 8 45 0.0 3.2 0.00 0.00 0.00 92 1013.6
20260505041009 8 11 0.0 3.2 0.00 0.00 0.00 92 1013.7
20260505040507 8 17 0.0 3.2 0.00 0.00 0.00 93 1013.7
20260505040006 8 13 0.0 3.2 0.00 0.00 0.00 93 1013.6
20260505035508 8 9 0.0 3.2 0.00 0.00 0.00 93 1013.6
20260505035008 8 9 0.0 3.2 0.00 0.00 0.00 93 1013.6
20260505034505 8 360 0.0 3.2 0.00 0.00 0.00 93 1013.7
20260505034005 8 21 0.0 3.2 0.00 0.00 0.00 93 1013.6
20260505033508 8 24 0.0 3.2 0.00 0.00 0.00 93 1013.6
20260505033005 8 355 0.0 3.2 0.00 0.00 0.00 93 1013.6
20260505032505 8 355 0.0 3.2 0.00 0.00 0.00 93 1013.6
20260505032005 8 21 0.0 3.2 0.00 0.00 0.00 93 1013.7
20260505031504 8 21 0.0 3.2 0.00 0.00 0.00 93 1013.7
20260505031004 8 21 0.0 3.2 0.00 0.00 0.00 93 1013.6
20260505030504 8 32 0.0 3.2 0.00 0.00 0.00 93 1013.6
20260505030004 8 32 0.0 0.0 0.00 0.00 0.00 93 1013.4
20260505025503 8 32 0.0 0.0 0.00 0.00 0.00 93 1013.5
20260505025002 8 32 0.0 0.0 0.00 0.00 0.00 93 1013.5
20260505024502 8 32 0.0 0.0 0.00 0.00 0.00 93 1013.6
20260505024005 7 32 0.0 0.0 0.00 0.00 0.00 93 1013.6
20260505023501 7 32 0.0 0.0 0.00 0.00 0.00 93 1013.6
20260505023101 7 32 0.0 3.2 0.00 0.00 0.00 92 1013.5
20260505022600 7 32 0.0 3.2 0.00 0.00 0.00 92 1013.5
20260505022058 7 32 0.0 0.0 0.00 0.00 0.00 92 1013.5
20260505021559 7 32 0.0 3.2 0.00 0.00 0.00 92 1013.6
20260505021057 8 32 0.0 3.2 0.00 0.00 0.00 91 1013.5
20260505020602 8 32 0.0 0.0 0.00 0.00 0.00 91 1013.6
20260505020056 8 32 0.0 1.6 0.00 0.00 0.00 91 1013.6
20260505015556 8 32 0.0 1.6 0.00 0.00 0.00 90 1013.6
20260505015057 8 32 0.0 3.2 0.00 0.00 0.00 90 1013.6
20260505014604 9 32 0.0 3.2 0.00 0.00 0.00 90 1013.7
20260505014056 9 32 0.0 3.2 0.00 0.00 0.00 90 1013.7
20260505013550 9 32 0.0 3.2 0.00 0.00 0.00 89 1013.8
20260505013050 10 32 0.0 3.2 0.00 0.00 0.00 89 1013.8
20260505012548 10 32 0.0 3.2 0.00 0.00 0.00 89 1013.8
20260505012048 10 27 0.0 3.2 0.00 0.00 0.00 89 1014.0
20260505011551 10 27 0.0 3.2 0.00 0.00 0.00 89 1014.0
20260505011046 10 27 0.0 3.2 0.00 0.00 0.00 88 1014.1
20260505010545 10 22 0.0 3.2 0.00 0.00 0.00 88 1014.0
20260505010043 10 17 0.0 3.2 0.00 0.00 0.00 88 1014.0
20260505005542 11 17 0.0 1.6 0.00 0.00 0.00 88 1014.1
20260505005042 11 17 0.0 3.2 0.00 0.00 0.00 88 1014.2
20260505004541 11 19 0.0 3.2 0.00 0.00 0.00 88 1014.3
20260505004041 11 19 0.0 3.2 0.00 0.00 0.00 88 1014.3
20260505003540 11 16 0.0 3.2 0.00 0.00 0.00 88 1014.2
20260505003039 11 16 0.0 3.2 0.00 0.00 0.00 87 1014.2
20260505002542 11 16 0.0 3.2 0.00 0.00 0.00 87 1014.3
20260505002039 11 16 0.0 3.2 0.00 0.00 0.00 87 1014.4
20260505001544 11 32 0.0 1.6 0.00 0.00 0.00 87 1014.4
20260505001037 11 32 0.0 3.2 0.00 0.00 0.00 87 1014.4
20260505000537 11 32 0.0 3.2 0.00 0.00 0.00 86 1014.3
20260505000037 11 14 0.0 3.2 0.00 0.00 0.00 86 1014.4
20260504235540 11 11 0.0 3.2 0.00 0.00 0.00 86 1014.3
20260504235037 11 11 0.0 3.2 0.00 0.00 0.00 86 1014.3
20260504234535 11 13 0.0 3.2 0.00 0.00 0.00 86 1014.4
20260504234034 11 355 0.0 3.2 0.00 0.00 0.00 85 1014.4
20260504233534 11 355 0.0 3.2 0.00 0.00 0.00 85 1014.5
20260504233034 11 35 0.0 3.2 0.00 0.00 0.00 85 1014.5
20260504232533 11 27 0.0 3.2 0.00 0.00 0.00 85 1014.5
20260504232033 11 32 0.0 3.2 0.00 0.00 0.00 85 1014.5
20260504231533 11 55 0.0 3.2 0.00 0.00 0.00 85 1014.5
20260504231032 11 33 0.0 3.2 0.00 0.00 0.00 85 1014.4
20260504230531 11 42 0.0 3.2 0.00 0.00 0.00 85 1014.4
20260504230030 12 42 0.0 3.2 0.00 0.00 0.00 84 1014.4
20260504225530 12 42 0.0 3.2 0.00 0.00 0.00 85 1014.4
20260504225032 12 59 0.0 4.8 0.00 0.00 0.00 85 1014.4
20260504224536 12 30 0.0 4.8 0.00 0.00 0.00 85 1014.4
20260504224030 12 21 0.0 3.2 0.00 0.00 0.00 85 1014.4
20260504223531 12 35 0.0 3.2 0.00 0.00 0.00 85 1014.5
20260504223029 12 11 0.0 3.2 0.00 0.00 0.00 85 1014.5
20260504222528 12 11 0.0 3.2 0.00 0.00 0.00 85 1014.5
20260504222032 12 11 0.0 3.2 0.00 0.00 0.00 85 1014.6
20260504221629 12 11 0.0 3.2 0.00 0.00 0.00 85 1014.6
20260504221028 12 11 0.0 3.2 0.00 0.00 0.00 84 1014.7
20260504220528 12 41 0.0 3.2 0.00 0.00 0.00 84 1014.7
20260504220028 12 48 0.0 3.2 0.00 0.00 0.00 83 1014.7
20260504215528 12 5 0.0 3.2 0.00 0.00 0.00 83 1014.7
20260504215028 12 71 0.0 3.2 0.00 0.00 0.00 83 1014.7
20260504214528 12 40 0.0 3.2 0.00 0.00 0.00 83 1014.7
20260504214030 12 59 0.0 3.2 0.00 0.00 0.00 83 1014.7
20260504213527 12 37 0.0 3.2 0.00 0.00 0.00 83 1014.7
20260504213027 12 40 0.0 6.4 0.00 0.00 0.00 82 1014.7
20260504212526 12 360 0.0 6.4 0.00 0.00 0.00 82 1014.7
20260504212030 12 13 1.6 4.8 0.00 0.00 0.00 82 1014.7
20260504211526 12 34 0.0 4.8 0.00 0.00 0.00 82 1014.8
20260504211025 12 21 0.0 4.8 0.00 0.00 0.00 82 1014.8
20260504210525 12 350 0.0 6.4 0.00 0.00 0.00 82 1014.8
20260504210035 12 21 1.6 6.4 0.00 0.00 0.00 83 1014.7
20260504205525 12 49 1.6 4.8 0.00 0.00 0.00 83 1014.7
20260504205024 12 360 0.0 3.2 0.00 0.00 0.00 83 1014.7
20260504204532 12 32 0.0 3.2 0.00 0.00 0.00 83 1014.7
20260504204026 12 332 0.0 3.2 0.00 0.00 0.00 83 1014.7
20260504203524 12 329 0.0 3.2 0.00 0.00 0.00 83 1014.7
20260504203026 12 340 0.0 3.2 0.00 0.00 0.00 83 1014.7
20260504202523 12 360 1.6 3.2 0.00 0.00 0.00 83 1014.7
20260504202022 12 355 1.6 3.2 0.00 0.00 0.00 83 1014.6
20260504201521 13 360 0.0 4.8 0.00 0.00 0.00 83 1014.6
20260504201020 13 19 0.0 4.8 0.00 0.00 0.00 83 1014.6
20260504200520 13 16 0.0 3.2 0.00 0.00 0.00 83 1014.5
20260504200020 13 9 0.0 3.2 0.00 0.00 0.00 83 1014.4
20260504195519 13 350 0.0 3.2 0.00 0.00 0.00 83 1014.5
20260504195019 13 355 0.0 3.2 0.00 0.00 0.00 84 1014.5
20260504194519 13 355 0.0 3.2 0.00 0.00 0.00 84 1014.4
20260504194019 13 355 0.0 3.2 0.00 0.00 0.00 83 1014.3
20260504193519 13 5 0.0 3.2 0.00 0.00 0.00 83 1014.3
20260504193018 13 26 0.0 3.2 0.00 0.00 0.00 83 1014.2
20260504192518 13 26 0.0 3.2 0.00 0.00 0.00 83 1014.2
20260504192018 13 19 0.0 3.2 0.00 0.00 0.00 82 1014.2
20260504191518 13 39 0.0 3.2 0.00 0.00 0.00 82 1014.1
20260504191021 13 60 0.0 3.2 0.00 0.00 0.00 82 1014.1
20260504190518 13 51 0.0 3.2 0.00 0.00 0.00 81 1014.1
20260504190017 13 28 0.0 3.2 0.00 0.00 0.00 81 1014.1
20260504185517 13 13 0.0 3.2 0.00 0.00 0.00 80 1014.1
20260504185018 13 13 0.0 3.2 0.00 0.00 0.00 80 1014.1
20260504184517 13 360 0.0 6.4 0.00 0.00 0.00 80 1014.1
20260504184017 13 28 0.0 6.4 0.00 0.00 0.00 80 1014.0
20260504183517 13 22 0.0 4.8 0.00 0.00 0.00 80 1014.0
20260504183016 13 5 0.0 6.4 0.00 0.00 0.00 80 1014.0
20260504182516 13 5 0.0 8.0 0.00 0.00 0.00 79 1013.9
20260504182016 13 36 1.6 8.0 0.00 0.00 0.00 79 1013.9
20260504181516 13 36 0.0 8.0 0.00 0.00 0.00 79 1013.9
20260504181016 13 339 0.0 8.0 0.00 0.00 0.00 79 1013.9
20260504180516 14 77 1.6 8.0 0.00 0.00 0.00 80 1013.7
20260504180015 14 51 0.0 4.8 0.00 0.00 0.00 79 1013.8
20260504175515 14 349 1.6 6.4 0.00 0.00 0.00 79 1013.8
20260504175015 14 51 0.0 9.7 0.00 0.00 0.00 78 1013.7
20260504174515 14 32 1.6 9.7 0.00 0.00 0.00 79 1013.7
20260504174015 14 39 1.6 8.0 0.00 0.00 0.00 78 1013.7
20260504173515 14 15 3.2 9.7 0.00 0.00 0.00 78 1013.6
20260504173014 14 22 1.6 9.7 0.00 0.00 0.00 77 1013.7
20260504172513 15 60 3.2 6.4 0.00 0.00 0.00 77 1013.7
20260504172014 15 355 0.0 9.7 0.00 0.00 0.00 79 1013.7
20260504171514 14 36 1.6 12.9 0.00 0.00 0.00 77 1013.7
20260504171018 14 21 3.2 12.9 0.00 0.00 0.00 78 1013.7
20260504170517 14 24 1.6 9.7 0.00 0.00 0.00 77 1013.7